PCSAT (NO-44) (26931 NORAD) Tracking and Keplerian Element Data

This shows tracking and keplerian element data for the satellite.

Feedback or suggestion? Click here.




ElementValue
Catalog26931
NamePCSAT (NO-44)
Epoch Orbit20278
Epoch Day286.80830851
Epoch Year2024
RAAN27.6451
Inclination67.0529
Eccentricity0.000759
Argument of Perigee265.0347
Mean Anonmoly94.9888
Mean Motion14.31433862
Decay Rate1.264E-05
L11 26931U 01043C 24286.80830851 .00001264 00000+0 50679-3 0 9996
L22 26931 67.0529 27.6451 0007590 265.0347 94.9888 14.31433862202785



Live tracking and technical data element details for PCSAT (NO-44) (NORAD 26931). PCSAT (NO-44) can be tracked NOW for your location showing map with azimuth and elevation plus other details from your city location.







IsCatalogInMostPopularTable: catalog: 26931, numindb: 1349
Update: records affected: 1



GetName: 26931 PCSAT (NO-44)

Hit Count: updated at: Wed, 04 Dec 2024 22:13:21 GMT